Regional Weather Roundup
Issued by NWS

Home | Current Version | Previous Version | Graphics & Text | Print | Product List | Glossary On
Versions: 1 2 3 4 5 6 7 8 9 10 11 12 13 14 15 16 17 18 19 20 21 22 23 24 25 26 27 28 29 30 31 32 33 34 35 36 37 38 39 40 41 42 43 44 45 46 47 48 49 50
000
ASUS44 KMEG 301510
RWRTN
TENNESSEE HOURLY STATE WEATHER ROUNDUP
NATIONAL WEATHER SERVICE MEMPHIS TN
1000 AM CDT TUE SEP 30 2014

TNZ002-004-019-021-049-052-054-088>092-301600-
WEST TENNESSEE

CITY           SKY/WX    TMP DP  RH WIND       PRES   REMARKS
MEMPHIS INTL   MOSUNNY   78  60  53 CALM      29.96S
NWS MEMPHIS      N/A     76 N/A N/A MISG        N/A
JACKSON        SUNNY     74  63  68 CALM      29.96S
DYERSBURG      SUNNY     75  55  50 CALM      29.97S
UNION CITY     SUNNY     72  61  68 CALM      29.96R
PARIS          SUNNY     79  55  44 SE6       29.97S
HUNTINGDON     SUNNY     74  61  63 CALM      29.96S
LEXINGTON      SUNNY     72  64  78 CALM      29.96S
SAVANNAH       SUNNY     75  66  73 CALM      29.96S
$$

TNZ008-025-027-028-033-062-065-066-301600-
NORTH MIDDLE TENNESSEE

CITY           SKY/WX    TMP DP  RH WIND       PRES   REMARKS
NASHVILLE      SUNNY     77  62  59 CALM      29.97S
DICKSON        SUNNY     79  59  50 CALM      29.97S
PORTLAND       SUNNY     73  61  64 CALM      29.96S
CLARKSVILLE    SUNNY     75  58  55 CALM      29.97S
LEBANON        SUNNY     74  62  66 CALM      29.95F
SMYRNA         SUNNY     75  62  64 CALM      29.97F
MURFREESBORO   SUNNY     75  60  59 CALM      29.96F
COOKEVILLE     SUNNY     73  64  73 S5        29.98S
LIVINGSTON     SUNNY     71  61  70 SW5       29.99F
GALLATIN       SUNNY     71  65  81 CALM      29.98S
CROSSVILLE     SUNNY     73  60  63 W5        30.01F
$$

TNZ061-075-076-078-094-096-097-301600-
SOUTH MIDDLE TENNESSEE

CITY           SKY/WX    TMP DP  RH WIND       PRES   REMARKS
LEWISBURG      SUNNY     77  66  68 VRB5      29.96F
FAYETTEVILLE   CLOUDY    66  64  94 CALM      29.99S
TULLAHOMA      SUNNY     73  64  73 S3        29.99F
WINCHESTER     SUNNY     73  64  73 CALM      29.99S
MCMINNVILLE    SUNNY     73  70  88 W6        29.98F
COLUMBIA       SUNNY     75  72  88 SW5       29.96S
SHELBYVILLE    SUNNY     77  66  69 CALM      29.98F
$$

TNZ017-018-042-046-047-301600-
NORTHEAST TENNESSEE

CITY           SKY/WX    TMP DP  RH WIND       PRES   REMARKS
TRI CITIES     MOSUNNY   66  59  78 CALM      30.01S
ELIZABETHTON   SUNNY     70  57  64 CALM      30.00F
$$

TNZ012-013-036-069-073-074-301600-
CENTRAL EAST TENNESSEE

CITY           SKY/WX    TMP DP  RH WIND       PRES   REMARKS
KNOXVILLE      PTSUNNY   69  63  81 NW7       29.98F
OAK RIDGE      CLOUDY    66  63  90 CALM      30.00F
GATLINBURG     SUNNY     70  59  68 CALM      29.98F
$$

TNZ083-085-099-301600-
SOUTHEAST TENNESSEE

CITY           SKY/WX    TMP DP  RH WIND       PRES   REMARKS
CHATTANOOGA    PTSUNNY   70  64  81 CALM      29.99S
$$

SKY/WX REPORTED AS FAIR MEANS FEW OR NO CLOUDS BELOW
12 THOUSAND FEET.




USA.gov is the U.S. government's official web portal to all federal, state and local government web resources and services.